sat.trackr.live / text

‹ back to catalog

STARLINK-33810

NORAD 63660 · 2025-083AC

PAYLOAD ACTIVE UNKNOWN

§ Identity

Operator
Country
US
Launch date
2025-04-25
Launch site
AFETR
Launch vehicle
Mass (kg)
RCS (m²)

Purposes: comms

External: N2YO · Heavens-Above · Gunter

§ Orbital elements

Epoch: 2026-09-20T12:02:09.949920Z

Period
94.27 min
Inclination
43.0026°
Eccentricity
0.0001239
Mean motion
15.27591517 rev/d
Perigee alt
482.2 km
Apogee alt
483.9 km
Semi-major
6,861.2 km
B*
4.4773e-4
RAAN
344.7606°
Arg perigee
271.8734°
Mean anomaly
88.1976°
Rev number
7,989

§ Raw data

STARLINK-338101 63660U 25083AC  26263.50150405  .00012083  00000+0  44773-3 0  99992 63660  43.0026 344.7606 0001239 271.8734  88.1976 15.27591517 79890

JSON: /api/v1/satellites/63660 · /tle

For live sub-satellite position, see the globe view (requires WebGL).

§ Visibility from observer

Set your observer location to see the next 7 days of passes ≥ 10°. The values pass through the URL so the page stays shareable.

No JS? Fill the form by hand. The geolocation button needs JavaScript.